Regional Weather Roundup
Issued by NWS San Angelo, TX

Home | Current Version | Previous Version | Text Only | Print | Product List | Glossary On
Versions: 1 2 3 4 5 6 7 8 9 10 11 12 13 14 15 16 17 18 19 20 21 22 23 24 25 26 27 28 29 30 31 32 33 34 35 36 37 38 39 40 41 42 43 44 45 46 47 48 49 50
000
ASUS44 KSJT 031511
RWRSJT
WEST CENTRAL TEXAS REGIONAL WEATHER ROUNDUP
NATIONAL WEATHER SERVICE SAN ANGELO TX
1000 AM CDT THU SEP 03 2015

NOTE: "FAIR" INDICATES FEW OR NO CLOUDS BELOW 12,000 FEET WITH NO
SIGNIFICANT WEATHER AND/OR OBSTRUCTIONS TO VISIBILITY.

TXZ049-054-064>066-071>073-076>078-098-099-113-114-127-128-139-140-
154-155-168>170-031600
...LOCATIONS ACROSS WEST CENTRAL TEXAS...

CITY           SKY/WX    TMP DP  RH WIND       PRES   REMARKS
SAN ANGELO     SUNNY     79  68  69 S8        30.01S
ABILENE        SUNNY     81  67  62 S14       30.02R
DYESS AFB      SUNNY     83  67  60 S12       30.00R
JUNCTION       SUNNY     79  68  69 CALM      30.01S
SWEETWATER     SUNNY     79  64  59 S15       30.06S
BROWNWOOD      SUNNY     79  68  69 SE3       30.02R
COLEMAN        SUNNY     80  67  66 SW5       30.03R
SONORA         PTSUNNY   77  70  78 S8        30.07S
OZONA          FAIR      77  66  69 S10       30.06R
BRADY          SUNNY     81  70  69 S7        30.01S
$$

TEXAS PANHANDLE/OKLAHOMA PANHANDLE

CITY           SKY/WX    TMP DP  RH WIND       PRES   REMARKS
AMARILLO       SUNNY     82  56  40 SW8       30.01R
BORGER         SUNNY     83  56  39 SW14G20   29.96S
CANADIAN       SUNNY     81  60  49 S12       29.94S
DALHART        PTSUNNY   80  55  42 SW9       30.01S
DUMAS          SUNNY     79  53  40 SW18      29.98S
GUYMON         NOT AVBL
HEREFORD       SUNNY     83  54  35 W17       30.03F
PAMPA          SUNNY     82  57  43 S14       30.00R
PERRYTON       SUNNY     82  56  41 S16G22    29.94F
$$

SOUTHERN PANHANDLE/SOUTH PLAINS/ROLLING PLAINS

CITY           SKY/WX    TMP DP  RH WIND       PRES   REMARKS
LUBBOCK        PTSUNNY   78  57  48 SW12      30.05R
SNYDER         SUNNY     77  62  58 S12       30.05S
CHILDRESS      SUNNY     80  61  52 S12       29.97F
SEMINOLE       SUNNY     77  59  54 S15       30.06S
$$

PERMIAN BASIN

CITY           SKY/WX    TMP DP  RH WIND       PRES   REMARKS
MIDLAND        SUNNY     79  62  56 S13       30.04F
ODESSA         SUNNY     79  61  53 S15       30.05S
WINK           SUNNY     79  60  52 SE17      30.00S
$$

FAR WEST/SOUTHWEST MOUNTAINS/TRANS PECOS

CITY           SKY/WX    TMP DP  RH WIND       PRES   REMARKS
ALPINE         SUNNY     78  55  44 CALM      30.15F
DRYDEN           N/A     80  68  66 VRB6      30.00R
EL PASO        CLOUDY    81  51  35 CALM      30.07S
FORT STOCKTON  SUNNY     79  60  52 SE14      30.03R
GUADALUPE PASS SUNNY     75  50  41 N5        30.17S
MARFA          SUNNY     73  57  56 S7        30.14S
PECOS          SUNNY     74  57  53 E6        30.00S
$$

DALLAS/FORT WORTH METROPLEX

CITY           SKY/WX    TMP DP  RH WIND       PRES   REMARKS
DFW AIRPORT    MOSUNNY   82  69  64 S6        29.98F
FTW MEACHAM    SUNNY     82  69  64 VRB6      29.98F
DAL-EXECUTIVE  SUNNY     81  69  67 SE8       29.99S
GRAND PRAIRIE  SUNNY     81  70  69 S7        30.01S
ADDISON        SUNNY     82  68  61 SE6       30.00S
MESQUITE       SUNNY     81  70  69 SE5       30.00S
LANCASTER      SUNNY     81  68  65 SE3       30.00S
$$

NORTH CENTRAL TEXAS

CITY           SKY/WX    TMP DP  RH WIND       PRES   REMARKS
SHRMAN/DENISON SUNNY     85  70  60 S8        30.01S
GAINESVILLE    SUNNY     83  66  57 S10       30.01S
BRIDGEPORT     SUNNY     83  68  59 S6        30.02R
DENTON         SUNNY     82  69  64 S6        29.99S
WAXAHACHIE     SUNNY     80  71  73 S3        30.01S
GRANBURY       SUNNY     82  69  64 E3        30.00S
$$

WESTERN NORTH TEXAS

CITY           SKY/WX    TMP DP  RH WIND       PRES   REMARKS
WICHITA FALLS  MOSUNNY   83  65  54 S12       29.98S
VERNON         MOSUNNY   82  59  46 S13       29.98S
BRECKENRIDGE   SUNNY     83  64  52 SW9       30.00S
COMANCHE       SUNNY     82  69  64 S3        30.01S
$$

CENTRAL AND SOUTH CENTRAL TEXAS

CITY           SKY/WX    TMP DP  RH WIND       PRES   REMARKS
AUSTIN/BERGSTM PTSUNNY   80  71  74 CALM      29.97S
WACO           SUNNY     81  70  69 S5        29.99S
HILLSBORO      SUNNY     79  70  72 S3        30.00S
TEMPLE         MOSUNNY   79  68  69 S3        29.99S
KILLEEN-GRAY   MOSUNNY   81  69  68 SW5       29.99S
FORT HOOD      MOSUNNY   79  70  72 VRB3      29.98S
GEORGETOWN     PTSUNNY   81  70  69 VRB3      30.00R
LAGO VISTA     PTSUNNY   81  69  68 SW3       30.01R
SAN MARCOS     PTSUNNY   79  72  78 MISG      29.99R
NEW BRAUNFELS  CLOUDY    80  72  76 CALM      29.97R
RANDOLPH AFB   PTSUNNY   81  72  74 SE5       29.97S
SAN ANTONIO    PTSUNNY   82  72  71 NE6       29.98R
STINSON        CLOUDY    81  72  74 CALM      29.95S
PLEASANTON     NOT AVBL
LA GRANGE      CLOUDY    80  76  88 E5        29.95S
GIDDINGS       PTSUNNY   78  72  81 CALM      30.01S
$$

EAST TEXAS

CITY           SKY/WX    TMP DP  RH WIND       PRES   REMARKS
PARIS          SUNNY     81  64  57 S6        30.01S
CLARKSVILLE    NOT AVBL
TYLER          PTSUNNY   81  71  71 SE7       30.01S
LONGVIEW       PTSUNNY   80  72  76 S5        30.01R
PALESTINE      MOSUNNY   78  73  83 E5        30.01S
NACOGDOCHES    CLOUDY    79  73  83 SE7       30.00S
$$

TEXAS HILL COUNTRY AND EDWARDS PLATEAU

CITY           SKY/WX    TMP DP  RH WIND       PRES   REMARKS
LLANO          MOSUNNY   81  68  65 CALM      30.03R
HORSESHOE BAY  PTSUNNY   82  70  68 CALM      30.00R
KERRVILLE      CLOUDY    77  70  80 S7        30.02R
FREDERICKSBRG  SUNNY     77  67  71 S5        30.02R
ROCKSPRINGS    MOSUNNY   79  70  73 S7        30.06S
HONDO          MOSUNNY   82  70  66 CALM      30.00R
UVALDE         CLOUDY    78  72  82 SE3       29.99R
DEL RIO        PTSUNNY   80  71  74 SE7       29.96R
$$

SOUTHEAST TEXAS

CITY           SKY/WX    TMP DP  RH WIND       PRES   REMARKS
COLLEGE STN    MOSUNNY   81  73  76 NE5       29.98S
CALDWELL       CLOUDY    73  73 100 E3        30.01S
CROCKETT       PTSUNNY   81  72  74 CALM      30.03S
BRENHAM        CLOUDY    77  77  99 E3        29.98S
HUNTSVILLE     CLOUDY    78  74  87 VRB3      30.00R
CONROE         PTSUNNY   79  73  82 VRB3      29.99S HAZE
HOUSTON BUSH   MOSUNNY   79  76  90 NE6       29.97S
HOUSTON HOBBY  PTSUNNY   82  73  74 CALM      29.95S
PERLAND        MOSUNNY   84  75  74 E6        29.97S
WHARTON        PTSUNNY   80  74  82 E3        29.96S
$$

THE UPPER TEXAS COAST

CITY           SKY/WX    TMP DP  RH WIND       PRES   REMARKS
ORANGE         MOSUNNY  N/A N/A N/A CALM      30.00S
PORT ARTHUR    HVY RAIN  81  77  88 E10       29.97S FOG
GALVESTON      SUNNY     84  75  74 VRB3      29.96S
ANGLETON       PTSUNNY   79  76  90 SW3       29.96R
BAY CITY       MOSUNNY   81  77  88 CALM      29.95S
$$

TEXAS COASTAL BEND, RIO GRANDE PLAINS DEEP SOUTH TEXAS

CITY           SKY/WX    TMP DP  RH WIND       PRES   REMARKS
VICTORIA       MOSUNNY   82  76  81 E5        29.96R
BEEVILLE       FAIR      83  77  84 NE6       29.95R
ROCKPORT       MOSUNNY   80  75  84 N8        29.93S
PORT ARANSAS   MOSUNNY   82  76  82 N9        29.93S
PORT LAVACA    MOSUNNY   79  74  85 CALM      29.95
CORPUS CHRISTI PTSUNNY   85  76  74 W3        29.93R
KINGSVILLE NAS PTSUNNY   84  78  82 SW3       29.93R
COTULLA        MOSUNNY   83  73  72 VRB3      29.95R
LAREDO         SUNNY     86  74  67 SE8       29.94S
BROWNSVILLE    MOSUNNY   86  78  77 SE7       29.91R
PORT ISABEL    PTSUNNY   87  78  74 S9        29.91R
HEBBRONVILLE   NOT AVBL
MCALLEN        MOSUNNY   85  77  77 SE10      29.92R
WESLACO        MOSUNNY   85  76  74 S7        29.91S
FALFURRIAS     PTSUNNY   84  76  77 S5        29.93R
EDINBURG       MOSUNNY   86  76  71 SE6       29.92R
$$



USA.gov is the U.S. government's official web portal to all federal, state and local government web resources and services.